Regional Weather Roundup
Issued by NWS Goodland, KS

Home | Current Version | Previous Version | Graphics & Text | Print | Product List | Glossary On
Versions: 1 2 3 4 5 6 7 8 9 10 11 12 13 14 15 16 17 18 19 20 21 22 23 24 25 26 27 28 29 30 31 32 33 34 35 36 37 38 39 40 41 42 43 44 45 46 47 48 49 50
000
ASUS43 KGLD 012108
RWRGLD

GOODLAND FORECAST AREA HOURLY WEATHER ROUNDUP
NATIONAL WEATHER SERVICE GOODLAND KS
300 PM MDT TUE SEP 01 2015

...OFFICIAL OBSERVATIONS...

CITY           SKY/WX    TMP DP  RH WIND       PRES   REMARKS
GOODLAND KS    MOSUNNY   91  52  26 SE8       29.97F
HILL CITY KS   MOSUNNY   97  58  27 MISG      29.89F
IMPERIAL NEB   SUNNY     92  49  22 SW6       29.93F
MCCOOK NEB     MOSUNNY   93  56  28 VRB5      29.90F
AKRON CO       SUNNY     91  34  13 NW13      30.02F
BURLINGTON CO  MOSUNNY   89  52  28 SE10      30.01F
LIMON CO       SUNNY     86  40  19 E5        30.09F
$$

...UNOFFICIAL OBSERVATIONS...

CITY           SKY/WX    TMP DP  RH WIND       PRES   REMARKS
COLBY KS       SUNNY     91  57  31 SW6       29.96F
GOVE KS          N/A     95  32  11 MISG        N/A
LENORA KS        N/A     92  32  12 MISG        N/A
NORTON KS      SUNNY     91  57  31 SE3       29.89
SHARON SPRINGS   N/A     94  57  28 SW9G17      N/A
TRENTON NEB      N/A     93  32  11 CALM        N/A
KIT CARSON CO    N/A     90  56  31 MISG        N/A
YUMA CO          N/A     91  46  20 CALM        N/A
$$



USA.gov is the U.S. government's official web portal to all federal, state and local government web resources and services.